Weather History for KMEM - February, 2014

Change the Weather History Date:

Saturday, February 15, 2014

  Actual Average Record
Temperature  
Mean Temperature 36 °F 46 °F  
Max Temperature 46 °F 55 °F 77 °F (1990)
Min Temperature 25 °F 36 °F 11 °F (1905)
Degree Days  
Heating Degree Days 29 20  
Month to date heating degree days 452 319  
Since 1 July heating degree days 2613 2221  
Cooling Degree Days 0 0  
Month to date cooling degree days 0 0  
Year to date cooling degree days 0 1  
Moisture  
Dew Point 23 °F    
Average Humidity 58    
Maximum Humidity 75    
Minimum Humidity 40    
Precipitation  
Precipitation 0.00 in 0.16 in 3.17 in (1873)
Month to date precipitation 4.77 2.30  
Year to date precipitation 7.93 6.28  
Snow  
Snow 0.00 in 0.00 in 1.90 in (1958)
Month to date snowfall 0.3 0.8  
Since 1 July snowfall 0.3 2.9  
Snow Depth 0.00 in    
Sea Level Pressure  
Sea Level Pressure 30.13 in    
Wind  
Wind Speed 6 mph (WSW)    
Max Wind Speed 20 mph    
Max Gust Speed 25 mph    
Visibility 10 miles    
Events      
T = Trace of Precipitation, MM = Missing Value Source: NWS Daily Summary

Daily Weather History Graph

Daily Weather History Graph

Search for Another Location

Airport or City:

Trip Planner

Search our weather history database for the weather conditions in past years. The results will help you decide how hot, cold, wet, or windy it might be!

Date:

Astronomy

Feb. 15, 2014 Rise Set
Actual Time 6:45 AM CST 5:42 PM CST
Civil Twilight 6:20 AM CST 6:08 PM CST
Nautical Twilight 5:50 AM CST 6:38 PM CST
Astronomical Twilight 5:20 AM CST 7:07 PM CST
Moon 6:38 PM CST (2/15) 6:48 AM CST (2/15)
Length of Visible Light 11h 48m
Length of Day
10h 56m
Waxing Gibbous, 99% of the Moon is Illuminated
Feb 15
Waxing Gibbous
Feb 22
Last Quarter
Mar 1
New
Mar 8
First Quarter
Mar 16
Full

Hourly Weather History & Observations

Time (CST) Temp. Windchill Dew Point Humidity Pressure Visibility Wind Dir Wind Speed Gust Speed Precip Events Conditions
12:54 AM 33.1 °F 24.4 °F 25.0 °F 72% 30.09 in 10.0 mi NNW 11.5 mph 19.6 mph N/A   Overcast
1:54 AM 32.0 °F 23.6 °F 23.0 °F 69% 30.10 in 10.0 mi North 10.4 mph 19.6 mph N/A   Mostly Cloudy
2:27 AM 30.2 °F 20.2 °F 21.2 °F 69% 30.10 in 10.0 mi North 12.7 mph 20.7 mph N/A   Mostly Cloudy
2:54 AM 28.9 °F 18.6 °F 21.9 °F 75% 30.11 in 10.0 mi North 12.7 mph 19.6 mph N/A   Scattered Clouds
3:54 AM 28.9 °F 20.4 °F 19.9 °F 69% 30.11 in 10.0 mi NNE 9.2 mph - N/A   Partly Cloudy
4:54 AM 27.0 °F 21.6 °F 19.0 °F 72% 30.13 in 10.0 mi North 4.6 mph - N/A   Partly Cloudy
5:54 AM 26.1 °F 20.5 °F 19.0 °F 75% 30.14 in 10.0 mi NE 4.6 mph - N/A   Partly Cloudy
6:54 AM 26.1 °F 20.5 °F 19.0 °F 75% 30.17 in 10.0 mi North 4.6 mph - N/A   Scattered Clouds
7:54 AM 28.9 °F - 21.0 °F 72% 30.22 in 10.0 mi Calm Calm - N/A   Scattered Clouds
8:54 AM 30.9 °F 25.2 °F 21.0 °F 67% 30.23 in 10.0 mi NW 5.8 mph - N/A   Scattered Clouds
9:54 AM 33.1 °F 30.0 °F 19.9 °F 59% 30.24 in 10.0 mi ENE 3.5 mph - N/A   Scattered Clouds
10:54 AM 34.0 °F 31.0 °F 21.0 °F 59% 30.23 in 10.0 mi SSW 3.5 mph - N/A   Scattered Clouds
11:54 AM 37.0 °F 34.5 °F 19.9 °F 50% 30.22 in 10.0 mi ENE 3.5 mph - N/A   Mostly Cloudy
12:54 PM 39.0 °F 34.0 °F 21.0 °F 49% 30.15 in 10.0 mi Variable 6.9 mph - N/A   Mostly Cloudy
1:54 PM 43.0 °F 38.2 °F 23.0 °F 45% 30.15 in 10.0 mi SSW 8.1 mph - N/A   Scattered Clouds
2:54 PM 45.0 °F 40.1 °F 23.0 °F 42% 30.13 in 10.0 mi SW 9.2 mph - N/A   Scattered Clouds
3:54 PM 45.0 °F 39.7 °F 21.9 °F 40% 30.10 in 10.0 mi South 10.4 mph - N/A   Scattered Clouds
4:54 PM 44.1 °F 40.1 °F 23.0 °F 43% 30.10 in 10.0 mi SSW 6.9 mph - N/A   Mostly Cloudy
5:54 PM 43.0 °F 40.3 °F 25.0 °F 49% 30.09 in 10.0 mi SSE 4.6 mph - N/A   Scattered Clouds
6:54 PM 41.0 °F 36.4 °F 27.0 °F 57% 30.06 in 10.0 mi South 6.9 mph - N/A   Mostly Cloudy
7:54 PM 41.0 °F 38.0 °F 26.1 °F 55% 30.09 in 10.0 mi WSW 4.6 mph - N/A   Mostly Cloudy
8:54 PM 42.1 °F - 26.1 °F 53% 30.10 in 10.0 mi Calm Calm - N/A   Mostly Cloudy
9:54 PM 42.1 °F 37.7 °F 28.9 °F 60% 30.10 in 10.0 mi South 6.9 mph - N/A   Mostly Cloudy
10:54 PM 39.0 °F 34.0 °F 28.9 °F 67% 30.09 in 10.0 mi SSW 6.9 mph - N/A   Scattered Clouds
11:54 PM 39.0 °F 33.4 °F 30.0 °F 70% 30.06 in 10.0 mi SSW 8.1 mph - N/A   Scattered Clouds